Temperature
25 24 23 22 21 21 20 20 20 19 19 19 19 19 19 19 19 18 18 18 18 18 18 18 18 18 18 18 18 18 18 18 18 18 18 18 18 18 18 18 18 18 18
25 24 23 22 21 21 20 20 20 19 19 19 19 19 19 19 19 19 18 18 18 18 18 18 18 18 18 18 18 18 18 18 18 18 18 18 18 18 18 18 18 18 18
25 24 23 23 22 21 21 20 20 20 19 19 19 19 19 19 19 19 19 18 18 18 18 18 18 18 18 18 18 18 18 18 18 18 18 18 18 18 18 18 18 18 18
26 24 24 23 22 21 21 20 20 20 20 19 19 19 19 19 19 19 19 18 18 18 18 18 18 18 18 18 18 18 18 18 18 18 18 18 18 18 17 18 18 18 18
27 25 24 23 22 22 21 20 20 20 20 19 19 19 19 19 19 19 19 18 18 18 18 18 18 18 18 18 18 18 18 18 18 18 18 18 18 18 17 17 17 17 17
27 25 24 23 23 22 21 20 20 20 20 19 19 19 19 19 19 19 19 18 18 18 18 18 18 18 18 18 18 18 18 18 18 18 17 17 17 17 17 17 17 17 17
27 26 24 23 23 22 21 21 20 20 20 19 19 19 19 19 19 18 18 18 18 18 18 18 18 18 18 18 17 17 17 17 17 17 17 17 17 17 17 17 17 17 17
27 26 25 24 23 22 21 21 20 20 20 19 19 19 19 18 18 18 18 18 18 18 18 18 18 18 18 17 17 17 17 17 17 17 17 17 17 17 17 17 16 16 16
27 26 25 24 23 22 21 21 20 20 20 19 19 19 19 18 18 18 18 18 18 18 18 18 18 17 17 17 17 17 17 17 17 17 17 17 16 16 16 16 16 16 15
28 26 25 24 23 23 22 21 20 20 20 19 19 19 19 18 18 18 18 18 18 18 18 17 17 17 17 17 17 17 17 16 16 16 16 16 16 16 16 16 16 16 16
28 27 26 25 24 23 22 21 20 20 19 19 19 19 19 18 18 18 18 18 18 18 17 17 17 17 17 17 17 16 16 16 16 16 16 16 16 16 16 16 16 15 15
28 27 26 24 23 23 22 21 20 20 19 19 19 19 18 18 18 18 18 18 17 17 17 17 17 17 17 17 16 16 16 16 16 16 16 16 15 16 16 16 15 15 15
27 26 25 24 24 23 22 21 20 20 19 19 19 19 18 18 18 18 17 17 17 17 17 17 17 16 16 16 16 16 16 16 15 15 15 15 15 15 15 15 15 15 15
26 26 25 24 23 23 22 21 20 20 19 19 19 18 18 18 18 18 17 17 17 17 17 17 16 16 16 16 16 16 16 15 15 15 15 15 15 15 15 15 15 14 14
26 25 24 23 23 22 21 21 20 20 19 19 19 18 18 18 18 17 17 17 17 17 16 16 16 16 16 16 16 15 15 15 15 15 15 15 15 14 14 14 14 14 14
25 25 24 23 22 21 21 20 20 20 19 19 18 18 18 18 17 17 17 17 17 16 16 16 16 16 16 15 15 15 15 15 15 14 14 14 14 14 14 14 14 14 14
25 24 23 22 22 21 21 20 20 19 19 19 18 18 18 17 17 17 17 16 16 16 16 16 16 16 16 15 15 15 15 14 14 14 14 14 14 14 14 14 13 13 13
24 23 23 22 21 21 20 20 19 19 19 18 18 18 17 17 17 17 16 16 16 16 16 15 15 15 15 15 15 15 14 14 14 14 14 14 13 13 13 13 13 13 13
23 22 22 22 21 20 20 20 19 18 18 18 18 17 17 17 17 16 16 16 16 15 15 15 15 15 15 15 15 14 14 14 13 13 13 13 13 13 13 13 13 12 12
22 22 22 21 20 20 19 19 19 18 18 18 18 17 17 17 16 16 16 16 16 15 15 15 15 15 15 15 14 14 14 13 13 13 13 13 13 13 13 12 12 12 12
21 21 21 20 20 19 19 19 18 18 18 17 17 17 17 16 16 16 16 15 15 15 15 14 14 14 14 14 14 14 13 13 13 13 13 13 12 12 12 12 12 12 12
21 20 20 20 19 19 19 18 18 18 17 17 17 17 16 16 16 15 15 15 15 15 14 14 14 14 14 14 13 13 13 13 13 12 12 12 12 12 12 12 12 12 11
20 20 19 19 19 19 18 18 18 17 17 17 16 16 16 15 15 15 15 15 15 14 14 14 13 13 13 13 13 13 13 12 12 12 12 12 12 12 11 11 11 11 11
19 19 19 18 18 18 18 18 17 17 17 16 16 16 15 15 15 15 14 14 14 14 14 14 13 13 13 13 13 12 12 12 12 12 12 12 12 11 11 11 11 11 11
19 19 18 18 18 18 18 17 17 17 16 16 16 15 15 15 15 15 14 14 14 14 14 14 13 13 13 13 12 12 12 12 12 12 11 11 11 11 11 11 10 10 10
18 18 17 17 17 17 17 17 17 16 16 15 15 15 15 15 14 14 14 14 14 14 13 13 13 13 13 12 12 12 12 12 11 11 11 11 11 11 11 10 10 10 10
Wind_Speed
11 10 9 9 9 8 7 5 4 4 2 2 2 2 2 2 2 3 4 4 3 3 2 1 2 2 1 1 2 1 2 3 2 1 1 2 2 2 2 2 2 3 5
11 11 10 9 9 8 7 6 5 5 3 2 2 1 1 2 2 2 3 3 3 3 3 2 2 2 1 2 2 1 2 3 2 1 1 1 1 2 3 3 2 2 2
13 12 10 9 9 9 7 6 5 5 3 3 2 1 1 1 1 2 2 2 2 3 1 3 3 2 2 2 3 2 3 3 3 2 1 1 2 1 1 1 2 2 2
14 12 11 10 9 9 9 7 6 4 4 3 2 2 2 1 1 1 2 2 2 3 2 3 3 2 2 2 3 3 3 3 3 2 2 3 1 1 1 1 0 1 2
14 13 12 10 9 9 9 8 6 5 4 2 1 1 1 1 0 0 1 1 1 2 2 2 2 2 2 2 2 1 2 2 3 2 2 3 2 3 3 2 2 1 0
13 13 12 10 9 9 9 9 7 5 4 3 2 2 1 0 1 0 0 1 1 1 1 1 2 2 2 2 2 2 2 2 3 3 2 2 2 2 2 2 2 2 1
13 13 13 12 10 9 9 9 8 6 5 4 3 2 2 1 1 1 0 1 0 1 0 0 0 1 2 2 2 2 3 3 3 3 2 2 2 2 2 2 2 2 2
13 14 13 12 10 10 9 9 8 6 5 4 3 2 2 2 1 1 1 0 1 1 1 1 0 1 1 2 2 2 3 3 3 3 2 2 2 2 2 2 2 2 2
13 13 13 12 10 9 8 8 8 6 5 4 4 3 2 1 0 0 0 1 2 1 2 1 1 0 1 2 2 1 2 1 2 2 2 2 2 2 1 2 2 2 2
12 13 12 12 11 10 9 8 7 6 5 4 4 4 3 2 1 1 2 2 2 3 2 2 2 1 1 1 1 1 1 1 1 1 1 1 1 2 1 1 1 1 2
12 12 11 11 11 10 9 8 7 6 5 4 3 2 2 2 2 2 1 1 1 2 2 2 2 2 2 2 1 1 1 1 2 2 2 2 2 2 2 1 1 1 2
11 12 11 11 10 10 10 8 8 7 6 4 3 3 2 2 2 2 2 2 2 1 2 2 2 2 2 2 2 2 3 2 3 3 3 3 3 2 2 2 1 1 1
11 11 11 9 9 9 9 8 8 7 6 5 4 3 3 2 2 2 2 2 2 2 2 2 2 2 2 3 3 2 3 3 3 3 3 3 3 3 3 2 1 1 1
9 10 9 8 7 6 7 7 6 6 5 5 5 3 3 2 2 2 2 2 2 2 2 2 1 2 3 3 3 3 3 3 3 4 4 4 4 3 3 2 2 1 0
8 8 8 7 6 6 6 6 4 5 5 5 4 4 3 2 2 2 2 2 2 2 2 2 2 2 2 3 3 2 2 2 3 3 4 4 5 6 4 3 3 2 1
7 8 7 8 7 6 5 5 5 5 5 4 3 4 3 3 3 2 2 2 2 2 2 2 2 3 3 4 5 3 2 2 3 3 3 3 4 6 6 5 5 3 1
6 6 7 7 6 6 6 6 5 4 4 4 3 3 3 3 3 2 2 2 2 2 2 2 3 3 4 5 6 5 2 3 3 3 2 2 3 4 3 3 3 3 3
6 5 5 6 6 5 6 5 5 5 5 5 4 3 3 3 2 2 2 1 2 2 2 2 3 3 4 5 5 5 1 3 3 3 3 3 3 4 4 1 2 3 3
5 4 4 5 6 5 6 6 5 4 5 5 4 3 3 3 3 2 1 1 2 2 2 3 3 3 3 4 5 5 1 2 3 3 4 3 3 6 6 2 2 2 2
5 4 4 5 5 5 5 5 5 4 4 4 3 3 3 3 3 2 2 1 2 2 3 3 3 4 4 4 5 4 0 2 2 3 3 5 5 5 5 2 1 1 2
5 5 4 4 4 5 5 5 4 4 3 3 3 3 3 3 3 3 2 2 2 3 3 4 3 4 4 4 4 4 2 2 1 2 2 3 4 4 4 3 2 2 2
5 5 4 4 4 4 4 4 3 3 3 3 3 3 3 2 3 3 2 2 3 3 3 3 3 3 4 4 3 4 3 3 2 2 2 2 2 3 3 2 3 4 3
4 4 4 4 4 4 4 4 3 3 3 4 3 3 3 3 3 3 3 2 2 2 3 2 3 3 3 3 3 2 3 4 2 2 2 0 2 2 1 1 2 2 2
2 3 3 3 3 4 4 4 4 3 4 4 4 3 3 3 3 2 2 2 1 1 1 2 2 3 3 3 2 1 1 1 1 1 1 2 3 2 1 1 1 1 1
2 2 3 2 3 3 4 4 5 5 5 4 4 4 4 4 3 3 3 2 2 1 1 1 2 2 3 2 1 1 0 1 1 1 1 1 1 0 0 0 0 0 1
2 2 2 2 2 3 3 3 4 5 5 5 5 4 4 4 4 5 4 7 4 5 6 5 4 4 5 4 3 3 2 3 2 1 1 0 1 1 1 1 1 1 2
Wind_Direction
153 150 147 142 139 137 138 143 152 145 161 166 181 186 187 205 184 179 168 173 196 197 193 256 192 228 214 214 207 201 248 256 249 284 265 244 220 199 208 219 201 180 180
150 150 151 150 145 142 145 150 155 155 168 164 185 202 194 213 185 155 148 187 199 208 206 198 238 222 213 234 238 218 249 263 241 236 266 275 262 235 220 196 204 182 156
156 154 155 155 152 151 155 156 154 155 169 166 181 186 182 254 138 143 167 195 210 223 233 187 232 236 213 206 215 231 239 252 260 234 227 234 244 295 294 210 174 154 158
154 154 158 159 159 156 155 144 149 154 161 178 190 200 164 171 194 173 160 181 212 228 220 218 226 235 246 219 215 212 238 244 260 255 245 239 214 208 270 296 109 156 167
154 157 160 159 158 158 155 148 145 154 163 182 177 219 175 166 187 150 135 164 197 231 242 220 219 219 237 245 251 235 223 243 253 258 256 253 238 220 204 235 261 255 148
151 151 154 154 158 157 153 150 150 159 165 179 181 194 214 2 350 319 221 192 188 205 253 218 220 225 242 235 233 236 228 242 261 269 273 265 254 250 226 225 229 236 254
145 148 152 157 160 158 154 152 153 160 169 180 186 187 199 223 258 280 279 284 288 160 210 294 181 251 259 247 242 225 245 242 247 248 260 264 262 256 238 210 231 244 258
150 153 157 158 161 161 157 153 155 162 171 178 176 185 186 215 224 263 302 349 337 358 95 96 162 244 279 271 253 250 245 243 245 253 254 269 269 271 247 216 215 240 250
148 152 155 156 158 160 158 157 154 161 173 175 166 183 181 199 161 16 126 32 3 6 67 78 80 48 325 311 308 279 282 275 270 288 284 275 283 280 260 229 215 219 245
152 152 155 157 161 160 155 154 151 158 169 169 178 174 174 163 145 64 48 48 17 18 29 37 45 52 48 12 319 291 302 320 321 297 315 306 305 317 322 267 256 234 219
154 153 154 155 155 154 153 152 152 155 162 159 156 152 157 150 138 132 113 82 54 43 39 34 25 23 36 31 3 346 20 15 1 349 357 340 321 321 310 300 264 213 191
153 149 150 151 155 158 157 157 159 163 164 154 154 148 134 136 144 139 126 105 94 87 69 55 39 21 29 24 17 11 24 19 14 10 17 1 356 358 341 337 313 254 214
142 142 144 150 157 157 157 157 159 164 159 153 151 144 149 138 134 123 113 112 107 98 93 77 63 36 33 31 23 36 35 32 28 25 28 18 16 8 358 355 342 316 279
131 135 135 136 142 142 141 142 152 150 150 145 145 140 137 137 141 130 117 108 113 119 109 91 65 63 59 38 27 42 45 46 41 35 36 33 25 13 3 5 9 2 327
134 134 136 131 129 129 130 130 139 137 137 144 145 136 133 135 130 122 121 122 123 117 101 93 72 59 65 29 25 32 56 59 56 46 48 51 45 38 31 24 17 11 18
143 140 135 138 138 138 138 133 129 125 123 121 139 142 142 144 142 136 132 128 120 113 110 99 77 58 41 28 32 32 50 50 60 59 47 62 55 44 50 46 38 34 32
137 136 138 135 137 142 141 139 135 137 137 132 129 144 154 158 155 150 133 141 132 119 105 95 87 77 55 44 39 28 49 59 54 55 42 37 41 39 31 42 50 40 27
122 124 136 141 144 147 151 144 148 149 147 148 154 159 164 152 135 127 137 134 123 123 125 112 95 85 62 46 39 14 79 85 72 57 47 50 40 23 10 24 60 54 37
113 116 144 145 143 151 150 148 153 154 155 155 153 157 156 147 143 150 149 128 130 138 139 121 109 103 80 48 36 12 77 104 91 79 56 47 42 13 10 27 51 54 46
114 113 125 137 137 144 150 152 158 156 158 157 153 146 140 142 146 145 136 136 147 137 128 113 110 109 96 63 42 11 9 97 97 99 85 59 45 17 18 18 22 18 359
104 107 108 125 136 142 145 148 151 155 149 139 134 133 138 146 143 132 129 138 140 128 125 129 123 110 107 93 60 39 27 26 62 91 90 65 31 15 5 3 6 330 315
100 107 110 117 128 133 139 143 146 141 134 134 136 134 140 150 137 136 147 153 149 149 147 146 141 129 119 100 75 53 33 3 21 54 73 74 26 350 339 351 342 336 330
119 122 124 126 123 133 139 152 147 136 137 137 137 137 137 120 131 154 170 174 173 176 158 156 157 140 124 108 89 77 37 18 31 43 60 303 274 279 264 310 355 4 13
125 125 119 127 132 135 140 144 141 134 143 147 148 148 146 141 138 168 162 147 149 165 154 152 151 139 126 105 88 87 87 60 72 45 283 245 255 279 323 357 4 33 359
145 140 138 149 152 143 144 146 146 151 156 160 163 165 159 145 127 94 59 88 80 118 150 109 102 121 122 118 135 148 71 338 356 315 239 218 191 198 213 112 16 5 3
150 144 150 161 159 155 157 158 162 161 168 181 188 184 168 161 158 143 108 54 72 86 83 83 98 95 104 119 101 70 27 353 343 305 284 344 22 11 355 334 350 12 1
Height
1520 1522 1525 1527 1528 1529 1530 1531 1532 1533 1533 1534 1535 1536 1537 1537 1538 1538 1538 1539 1540 1540 1541 1542 1542 1543 1544 1544 1545 1545 1546 1547 1547 1547 1547 1547 1548 1547 1547 1548 1549 1549 1550
1518 1521 1524 1526 1528 1529 1530 1531 1532 1533 1533 1534 1535 1536 1536 1537 1537 1537 1537 1538 1538 1539 1540 1540 1541 1542 1542 1543 1543 1544 1544 1545 1546 1546 1546 1546 1547 1546 1546 1546 1547 1548 1548
1516 1519 1523 1525 1527 1528 1529 1530 1531 1532 1533 1533 1535 1535 1536 1536 1537 1537 1537 1537 1537 1537 1538 1538 1539 1540 1540 1541 1542 1542 1543 1543 1544 1545 1545 1545 1545 1545 1545 1544 1545 1545 1544
1513 1517 1521 1524 1526 1528 1529 1530 1530 1531 1532 1533 1534 1534 1535 1535 1536 1536 1536 1536 1536 1536 1536 1537 1537 1538 1538 1539 1540 1540 1541 1541 1542 1542 1543 1543 1543 1543 1543 1543 1543 1543 1543
1510 1515 1519 1522 1525 1527 1528 1529 1530 1530 1531 1532 1533 1533 1534 1535 1535 1535 1535 1535 1535 1535 1535 1535 1535 1536 1536 1537 1538 1538 1538 1539 1539 1540 1540 1540 1541 1541 1541 1541 1541 1541 1541
1508 1513 1518 1521 1524 1526 1528 1528 1528 1529 1530 1531 1532 1533 1533 1534 1534 1534 1534 1534 1534 1533 1533 1534 1534 1534 1534 1535 1535 1536 1536 1536 1537 1537 1538 1538 1538 1538 1538 1538 1538 1538 1539
1506 1512 1516 1520 1523 1525 1526 1527 1528 1528 1529 1530 1531 1531 1532 1532 1533 1533 1533 1533 1533 1532 1532 1532 1532 1532 1533 1533 1533 1534 1534 1534 1534 1535 1535 1535 1535 1535 1535 1536 1536 1536 1537
1505 1510 1514 1518 1521 1524 1525 1526 1527 1528 1529 1529 1530 1530 1531 1532 1532 1532 1532 1532 1532 1532 1531 1531 1530 1531 1531 1532 1532 1532 1532 1532 1532 1533 1533 1533 1533 1533 1533 1533 1533 1533 1534
1503 1508 1512 1516 1519 1522 1524 1525 1526 1527 1528 1529 1529 1530 1530 1531 1531 1531 1531 1531 1531 1531 1530 1530 1529 1529 1530 1530 1530 1530 1530 1531 1530 1530 1530 1530 1530 1530 1530 1530 1531 1532 1531
1502 1507 1510 1514 1518 1520 1522 1524 1525 1526 1527 1528 1529 1529 1529 1529 1530 1530 1530 1530 1530 1530 1529 1529 1529 1529 1529 1529 1529 1529 1529 1529 1528 1528 1528 1528 1527 1527 1527 1527 1527 1528 1528
1500 1505 1509 1513 1516 1519 1521 1523 1524 1525 1526 1527 1528 1528 1528 1529 1529 1528 1528 1528 1528 1528 1528 1528 1528 1528 1528 1528 1528 1527 1527 1527 1527 1527 1526 1526 1526 1525 1524 1524 1524 1524 1525
1499 1503 1508 1512 1515 1517 1519 1521 1522 1524 1525 1526 1527 1527 1527 1528 1528 1528 1527 1527 1527 1527 1527 1527 1527 1527 1527 1527 1526 1526 1526 1526 1526 1525 1525 1524 1524 1523 1523 1522 1522 1522 1522
1498 1502 1507 1511 1514 1516 1519 1520 1521 1523 1525 1525 1526 1526 1527 1527 1527 1527 1527 1526 1526 1526 1526 1526 1526 1526 1526 1526 1525 1525 1525 1524 1524 1524 1523 1523 1522 1522 1521 1520 1520 1520 1520
1498 1502 1506 1510 1513 1515 1518 1519 1521 1522 1524 1524 1524 1525 1526 1526 1526 1526 1526 1526 1526 1526 1526 1525 1525 1525 1525 1525 1524 1524 1523 1523 1523 1523 1522 1522 1521 1520 1519 1519 1518 1518 1518
1499 1502 1506 1509 1512 1515 1517 1518 1520 1522 1523 1523 1523 1524 1524 1525 1525 1525 1524 1525 1525 1525 1525 1525 1524 1524 1524 1524 1523 1523 1522 1522 1522 1521 1521 1521 1520 1519 1519 1518 1517 1516 1516
1499 1502 1505 1508 1511 1513 1515 1517 1519 1520 1521 1523 1523 1523 1524 1524 1524 1524 1524 1523 1524 1524 1523 1523 1523 1523 1523 1523 1522 1522 1521 1521 1520 1520 1520 1520 1519 1518 1518 1517 1516 1516 1516
1498 1501 1504 1507 1510 1512 1514 1516 1517 1519 1520 1520 1522 1522 1523 1523 1523 1523 1523 1523 1523 1523 1523 1522 1522 1522 1521 1521 1521 1521 1520 1520 1520 1519 1519 1519 1518 1518 1517 1516 1516 1516 1516
1498 1501 1504 1506 1509 1511 1513 1514 1516 1518 1519 1519 1520 1521 1522 1522 1522 1522 1521 1521 1521 1521 1521 1521 1521 1520 1520 1520 1520 1520 1520 1519 1519 1519 1518 1518 1517 1517 1516 1516 1515 1515 1515
1498 1500 1503 1505 1507 1509 1511 1512 1514 1516 1517 1517 1518 1519 1519 1520 1520 1520 1520 1520 1520 1520 1520 1520 1519 1519 1519 1519 1519 1519 1519 1519 1518 1518 1518 1517 1516 1516 1516 1515 1515 1515 1514
1497 1499 1502 1504 1505 1507 1509 1511 1512 1513 1514 1515 1516 1517 1517 1517 1518 1518 1518 1518 1518 1518 1518 1518 1518 1518 1518 1518 1518 1518 1518 1518 1518 1517 1517 1516 1516 1515 1515 1515 1514 1514 1514
1496 1499 1501 1502 1504 1506 1507 1508 1510 1511 1512 1513 1514 1514 1515 1515 1516 1516 1516 1516 1517 1517 1516 1516 1516 1517 1516 1517 1517 1517 1517 1517 1517 1517 1516 1516 1516 1515 1515 1514 1514 1513 1514
1496 1498 1500 1501 1503 1504 1505 1507 1508 1509 1511 1511 1512 1512 1513 1514 1514 1514 1515 1515 1515 1515 1515 1516 1516 1516 1515 1516 1516 1516 1516 1516 1516 1516 1516 1516 1515 1515 1514 1514 1514 1513 1513
1496 1498 1499 1500 1501 1502 1503 1505 1506 1508 1509 1509 1510 1510 1511 1512 1512 1513 1513 1514 1514 1514 1514 1515 1515 1515 1515 1515 1515 1515 1516 1516 1516 1516 1516 1515 1515 1514 1514 1514 1513 1513 1512
1496 1497 1498 1499 1500 1501 1502 1503 1504 1506 1507 1507 1508 1508 1509 1510 1511 1511 1512 1512 1512 1513 1513 1513 1514 1514 1514 1514 1514 1514 1515 1515 1514 1515 1515 1515 1514 1514 1513 1513 1512 1512 1512
1495 1496 1496 1497 1498 1499 1499 1500 1501 1502 1503 1505 1506 1507 1507 1508 1509 1509 1509 1510 1511 1511 1512 1512 1513 1512 1512 1513 1513 1513 1513 1513 1513 1514 1514 1514 1513 1513 1512 1512 1512 1511 1511
1493 1494 1495 1495 1496 1497 1497 1498 1499 1500 1501 1502 1504 1505 1505 1506 1507 1507 1508 1508 1509 1510 1510 1511 1511 1511 1511 1512 1512 1512 1513 1513 1513 1513 1513 1513 1513 1512 1512 1511 1511 1510 1510